Location: Unspecified
(0.0000°N, 0.0000°E)
Time: 18:20:11
(UTC+00:00)

Courier 1B Rocket - Visible Passes

Search period start: 23 March 2017 00:00
Search period end: 02 April 2017 00:00
Orbit: 920 x 1202 km, 28.2° (Epoch: 21 March)

Date Brightness Start Highest point End Pass type
(mag) Time Alt. Az. Time Alt. Az. Time Alt. Az.
23 Mar 7.5 20:56:34 10° SSW 20:57:34 13° SSW 20:57:34 13° SSW visible
24 Mar 6.9 19:56:00 10° SSW 20:00:25 19° SSE 20:00:25 19° SSE visible
25 Mar 7.1 18:55:47 10° S 18:59:34 14° SSE 19:03:18 10° SE visible
25 Mar 7.1 20:47:08 10° SW 20:49:43 21° SSW 20:49:43 21° SSW visible
26 Mar 6.4 19:46:19 10° SSW 19:52:42 28° SSE 19:52:42 28° SSE visible
27 Mar 6.8 18:45:46 10° SSW 18:51:16 20° SSE 18:55:45 13° ESE visible
27 Mar 6.5 20:37:57 10° SW 20:42:09 34° SW 20:42:09 34° SW visible
28 Mar 5.8 19:36:56 10° SW 19:44:14 42° SSE 19:45:16 40° SE visible
28 Mar 7.7 21:30:32 10° WSW 21:31:40 15° WSW 21:31:40 15° WSW visible
29 Mar 6.4 18:36:10 10° SSW 18:42:48 30° SSE 18:48:28 13° E visible
29 Mar 5.8 20:29:02 10° WSW 20:34:52 54° WSW 20:34:52 54° WSW visible
30 Mar 5.4 19:27:48 10° SW 19:35:34 63° SSE 19:38:08 42° E visible
30 Mar 7.4 21:22:13 10° W 21:24:33 20° W 21:24:33 20° W visible
31 Mar 7.3 05:08:06 10° N 05:10:36 12° NNE 05:13:06 10° NE visible
31 Mar 5.9 18:26:51 10° SW 18:34:11 43° SSE 18:41:28 10° E visible
31 Mar 5.6 20:20:24 10° WSW 20:27:53 62° NW 20:27:53 62° NW visible
01 Apr 5.4 19:18:56 10° WSW 19:26:49 89° NNW 19:31:16 29° ENE visible
01 Apr 7.3 21:14:18 10° W 21:17:41 22° WNW 21:17:41 22° WNW visible
